Ibiza Airport

Airport
ICAO code: 
LEIB
IATA Code: 
IBZ
Summary
ICAO Region: 
EUR
Territory: 
Location: 
Es Codolá, Ibiza, Balearics,
Serving: 
Ibiza
Elevation: 
24 ft
Coordinates: 
Aerial View: 
38° 52' 24" N, 1° 22' 24" E
Metar
Observation
LEIB 260430Z 02006KT 9999 SCT022 BKN026 11/08 Q1030 NOSIG
Station
Ibiza / Es Codola
Date/Time
2022-01-26 04:30:00
Wind direction
20°
Wind speed
06 kts
Lowest cloud amount
scattered clouds
Temperature
11°C
Dew point
8°C
Humidity
81%
QNH
1030 hPa
Weather condition
n/a

International airport serving island of Ibiza.

Climatology

Dry-summer subtropical ”Mediterranean" climate (Köppen climate classification Csa) - characterized by hot, dry summers and mild winters. During the summer, subtropical high pressure cells dominate, making rainfall unlikely except for the occasional thunderstorm. In the winter, periodic storms bring rain.

Runways

Designator Length Width Surface Rops
6/24 2800 45 ASP Yes/Yes
Airport map: 
Aerial View: 

Accidents and Serious Incidents at or in the vicinity of LEIB

SKYbrary Partners:

Safety knowledge contributed by: